[[{"header":{"parameterUnit":"m.s-1","parameterCategory":1,"la1":30.2991,"la2":30.254,"lo1":-89.0895,"lo2":-89.0444,"dy":0.0017,"dx":0.0017,"nx":28,"ny":28,"refTime":"2025-02-10T03:00:00:Z","depth":0,"parameterNumber":2,"parameterNumberName":"U-component_of_WINDS"},"data":[0,0,0,0,0,0,0,0,0,0,0,0,0,0,0,0,0,0,0,0,0,0,0,0,0,0,0,0,0,0,0,0,0,0,0,0,0,0,0,0,0,0,0,0,0,0,0,0,0,0,0,0,0,0,0,0,0,0,-2.3164,-2.3164,0,-2.318,-2.318,-2.318,-2.3133,-2.3131,-2.313,-2.3128,-2.3148,-2.3149,-2.3151,0,0,0,0,0,0,0,0,0,0,0,0,0,-2.3095,-2.3097,-2.3164,-2.3164,-2.3164,-2.318,-2.318,-2.318,-2.3133,-2.3131,-2.3129,-2.3128,-2.3147,-2.3149,-2.3151,0,0,0,0,0,0,0,0,0,0,0,0,0,-2.312,-2.3097,-2.3164,-2.3142,-2.314,-2.318,-2.318,-2.318,-2.3133,-2.3131,-2.3129,-2.3127,-2.3146,-2.3149,-2.3152,-2.3213,0,0,-2.316,-2.3162,0,0,0,0,0,0,0,0,-2.3118,-2.3122,-2.3145,-2.3144,-2.3142,-2.3152,-2.3163,-2.3192,-2.3134,-2.3136,-2.3128,-2.3126,-2.3151,-2.3153,-2.3161,-2.3214,-2.3215,-2.3161,-2.3162,-2.3164,-2.3164,0,0,0,0,0,0,0,-2.3117,-2.3121,-2.317,-2.3146,-2.3144,-2.3133,-2.3134,-2.3168,-2.3156,-2.3136,-2.3132,-2.3135,-2.315,-2.3159,-2.3161,-2.3215,-2.3161,-2.3163,-2.3165,-2.3166,-2.3324,-2.3326,0,0,0,0,0,0,-2.3117,-2.312,-2.317,-2.3171,-2.3124,-2.3136,-2.3137,-2.3151,-2.3155,-2.3154,-2.3137,-2.3133,-2.3155,-2.3158,-2.3162,-2.3237,-2.3164,-2.3166,-2.3168,-2.3321,-2.3324,-2.3327,0,0,0,0,0,0,-2.3116,-2.3122,-2.3169,-2.3144,-2.315,-2.314,-2.3155,-2.3152,-2.3161,-2.3156,-2.3154,-2.3148,-2.3153,-2.3158,-2.3202,-2.3237,-2.3167,-2.317,-2.3318,-2.3322,-2.3325,-2.3386,0,0,0,0,0,0,-2.3114,-2.3122,-2.3144,-2.3145,-2.3151,-2.3207,-2.3157,-2.3154,-2.3166,-2.3161,-2.3166,-2.3165,-2.3152,-2.3198,-2.3204,-2.324,-2.3172,-2.3315,-2.332,-2.3324,-2.3381,-2.3392,-2.3401,0,0,0,0,0,-2.3112,-2.316,-2.3146,-2.3152,-2.3179,-2.3209,-2.3213,-2.3196,-2.3169,-2.3192,-2.3189,-2.3165,-2.3232,-2.3202,-2.321,-2.3246,-2.3313,-2.3318,-2.3324,-2.3377,-2.339,-2.3401,0,0,0,0,0,0,-2.3164,-2.316,-2.3144,-2.3193,-2.3202,-2.3201,-2.323,-2.321,-2.3227,-2.3222,-2.3201,-2.3203,-2.3251,-2.3253,-2.322,-2.3308,-2.3268,-2.3275,-2.3306,-2.3318,-2.3327,-2.3327,-2.3175,0,0,0,0,0,-2.3181,-2.3205,-2.3201,-2.3246,-2.3251,-2.324,-2.3253,-2.3239,-2.3248,-2.3251,-2.3251,-2.3261,-2.3285,-2.3301,-2.3322,-2.3381,-2.3383,-2.341,-2.3419,-2.3428,-2.3435,-2.347,-2.3483,-2.3345,-2.3345,-2.3345,0,0,-2.3217,-2.3218,-2.3235,-2.3256,-2.3261,-2.3289,-2.3243,-2.3273,-2.3294,-2.3256,-2.3298,-2.3299,-2.3309,-2.3361,-2.3384,-2.3364,-2.3473,-2.3435,-2.3441,-2.3444,-2.3477,-2.349,-2.3501,-2.3349,-2.3348,-2.3348,0,0,-2.3297,-2.3299,-2.3338,-2.3345,-2.3353,-2.3346,-2.3355,-2.3358,-2.3357,-2.3398,-2.3371,-2.3396,-2.3436,-2.3446,-2.3456,-2.3542,-2.3521,-2.3549,-2.3602,-2.3636,-2.3646,-2.3656,-2.369,-2.3702,-2.3556,-2.3556,-2.3557,0,-2.3341,-2.3381,-2.3361,-2.3394,-2.3406,-2.3372,-2.3413,-2.342,-2.3436,-2.3445,-2.3422,-2.3474,-2.3478,-2.3534,-2.3555,-2.3563,-2.3576,-2.355,-2.3646,-2.3656,-2.3664,-2.3697,-2.3709,-2.356,-2.356,-2.3559,-2.3559,0,-2.3436,-2.3464,-2.3495,-2.3511,-2.3526,-2.3562,-2.355,-2.3568,-2.3554,-2.3549,-2.3594,-2.3598,-2.3621,-2.3632,-2.3618,-2.3688,-2.3675,-2.3649,-2.3609,-2.3681,-2.3712,-2.3724,-2.3565,-2.3564,-2.3563,-2.3562,0,0,-2.355,-2.3556,-2.3567,-2.3576,-2.3584,-2.3606,-2.3642,-2.3664,-2.3681,-2.3693,-2.3725,-2.3761,-2.3738,-2.3749,-2.3736,-2.3766,-2.3838,-2.3737,-2.3737,-2.3758,-2.3919,-2.394,-2.3954,-2.3824,-2.3826,-2.3828,-2.3919,0,-2.3631,-2.3693,-2.3678,-2.374,-2.3767,-2.3737,-2.3769,-2.3778,-2.3776,-2.38,-2.3797,-2.3824,-2.379,-2.3797,-2.3825,-2.3824,-2.3871,-2.3816,-2.3856,-2.3858,-2.3857,-2.397,-2.3992,-2.4078,-2.393,-2.3932,-2.3933,0,-2.3735,-2.3752,-2.3817,-2.3823,-2.3834,-2.3863,-2.3884,-2.3906,-2.3917,-2.3913,-2.3927,-2.3909,-2.3947,-2.3905,-2.3959,-2.3923,-2.3938,-2.394,-2.3943,-2.3948,-2.3902,-2.3981,-2.4104,-2.4118,-2.3951,-2.395,-2.3948,0,-2.3816,-2.3854,-2.3899,-2.3906,-2.3914,-2.3936,-2.394,-2.3948,-2.3964,-2.3982,-2.3992,-2.4015,-2.4028,-2.4047,-2.4036,-2.4006,-2.4094,-2.4049,-2.4094,-2.4095,-2.4116,-2.4115,-2.4246,-2.4121,-2.4121,-2.412,-2.412,0,-2.391,-2.3952,-2.3936,-2.3964,-2.4011,-2.3993,-2.404,-2.4041,-2.4049,-2.4078,-2.4052,-2.4081,-2.4064,-2.4091,-2.4083,-2.4131,-2.4136,-2.4137,-2.4135,-2.4141,-2.4141,-2.4152,-2.4147,-2.4124,-2.4123,-2.4122,-2.4122,0,-2.4009,-2.3999,-2.4047,-2.405,-2.4052,-2.4087,-2.409,-2.4118,-2.4113,-2.4151,-2.4158,-2.4152,-2.4183,-2.4174,-2.4208,-2.4202,-2.4265,-2.4253,-2.4261,-2.426,-2.4306,-2.4303,-2.4451,-2.4471,-2.433,-2.4331,-2.4332,0,-2.4071,-2.4103,-2.411,-2.4128,-2.4134,-2.4162,-2.4178,-2.4162,-2.418,-2.4196,-2.4222,-2.4251,-2.4273,-2.4325,-2.4325,-2.4351,-2.4342,-2.4392,-2.4346,-2.4352,-2.4347,-2.4346,-2.4351,-2.4402,-2.4404,-2.4405,-2.4406,0,-2.4184,-2.4178,-2.4201,-2.4224,-2.4244,-2.4261,-2.4276,-2.4292,-2.4278,-2.43,-2.4331,-2.4349,-2.4383,-2.4414,-2.4438,-2.4444,-2.4425,-2.4421,-2.4433,-2.4441,-2.4446,-2.4447,-2.429,-2.4418,-2.4417,-2.4416,-2.4415,-2.4415,-2.4268,-2.4297,-2.4307,-2.4335,-2.4344,-2.436,-2.4386,-2.4386,-2.4411,-2.4439,-2.4428,-2.4465,-2.4478,-2.4508,-2.4518,-2.4548,-2.4529,-2.4546,-2.4551,-2.4556,-2.4564,-2.4438,-2.4552,-2.4552,-2.4551,-2.4551,-2.4551,0,-2.4383,-2.4388,-2.4414,-2.4436,-2.4459,-2.4437,-2.4453,-2.4474,-2.4507,-2.452,-2.4543,-2.4581,-2.461,-2.4613,-2.4641,-2.4665,-2.4657,-2.4674,-2.4673,-2.4676,-2.4577,-2.4565,-2.468,-2.468,-2.468,-2.468,-2.468,-2.468,-2.4445,-2.4493,-2.4489,-2.4542,-2.4547,-2.4583,-2.4595,-2.4609,-2.462,-2.4664,-2.4688,-2.4689,-2.4699,-2.4728,-2.4755,-2.4755,-2.4769,-2.4789,-2.4786,-2.4695,-2.4682,-2.467,-2.4659,-2.4791,-2.4792,-2.4883,-2.4884,-2.4884]},{"header":{"parameterUnit":"m.s-1","parameterCategory":1,"la1":30.2991,"la2":30.254,"lo1":-89.0895,"lo2":-89.0444,"dy":0.0017,"dx":0.0017,"nx":28,"ny":28,"refTime":"2025-02-10T03:00:00:Z","depth":0,"parameterNumber":3,"parameterNumberName":"V-component_of_WINDS"},"data":[0,0,0,0,0,0,0,0,0,0,0,0,0,0,0,0,0,0,0,0,0,0,0,0,0,0,0,0,0,0,0,0,0,0,0,0,0,0,0,0,0,0,0,0,0,0,0,0,0,0,0,0,0,0,0,0,0,0,-2.9255,-2.9254,0,-2.9183,-2.9182,-2.9181,-2.9202,-2.9204,-2.9205,-2.9206,-2.9123,-2.9119,-2.9116,0,0,0,0,0,0,0,0,0,0,0,0,0,-2.94,-2.9398,-2.9255,-2.9254,-2.9253,-2.9183,-2.9182,-2.9181,-2.9202,-2.9204,-2.9205,-2.9207,-2.9124,-2.912,-2.9116,0,0,0,0,0,0,0,0,0,0,0,0,0,-2.9333,-2.9397,-2.9255,-2.9255,-2.9255,-2.9183,-2.9182,-2.9181,-2.9201,-2.9204,-2.9206,-2.9208,-2.9126,-2.912,-2.9115,-2.9036,0,0,-2.9098,-2.9096,0,0,0,0,0,0,0,0,-2.9337,-2.9328,-2.9256,-2.9255,-2.9254,-2.9204,-2.9203,-2.9132,-2.9201,-2.9221,-2.9207,-2.9209,-2.9147,-2.914,-2.9122,-2.9032,-2.9029,-2.9098,-2.9095,-2.9092,-2.9091,0,0,0,0,0,0,0,-2.9342,-2.9331,-2.9226,-2.9255,-2.9254,-2.9256,-2.9249,-2.9189,-2.9172,-2.922,-2.9221,-2.9213,-2.9147,-2.9127,-2.912,-2.9027,-2.9098,-2.9093,-2.909,-2.9088,-2.8868,-2.8865,0,0,0,0,0,0,-2.9348,-2.9335,-2.9228,-2.9224,-2.9302,-2.9251,-2.9243,-2.9218,-2.9173,-2.9169,-2.9211,-2.9214,-2.9135,-2.9126,-2.9117,-2.902,-2.9092,-2.9087,-2.9084,-2.887,-2.8867,-2.8864,0,0,0,0,0,0,-2.9351,-2.9339,-2.9231,-2.928,-2.9266,-2.9246,-2.9217,-2.9215,-2.9195,-2.9167,-2.9163,-2.9194,-2.9136,-2.9125,-2.9056,-2.9018,-2.9085,-2.908,-2.8873,-2.8869,-2.8866,-2.8827,0,0,0,0,0,0,-2.9356,-2.934,-2.9312,-2.9279,-2.9264,-2.9174,-2.9215,-2.9212,-2.9186,-2.919,-2.9149,-2.9145,-2.9137,-2.9064,-2.9051,-2.9011,-2.9075,-2.8877,-2.8872,-2.8867,-2.8832,-2.8823,-2.8815,0,0,0,0,0,-2.9361,-2.9302,-2.931,-2.9297,-2.9229,-2.9172,-2.9163,-2.9159,-2.9183,-2.9153,-2.9135,-2.9146,-2.9025,-2.9057,-2.9042,-2.9001,-2.8879,-2.8873,-2.8867,-2.8836,-2.8824,-2.8815,0,0,0,0,0,0,-2.9327,-2.9298,-2.9306,-2.9236,-2.9207,-2.9176,-2.9138,-2.9147,-2.9108,-2.9112,-2.9105,-2.9096,-2.9026,-2.9006,-2.9043,-2.8921,-2.8955,-2.8946,-2.8936,-2.8925,-2.8917,-2.8922,-2.9071,0,0,0,0,0,-2.9312,-2.9272,-2.9247,-2.9187,-2.9172,-2.9158,-2.9133,-2.9133,-2.9101,-2.9087,-2.9064,-2.903,-2.8984,-2.8954,-2.891,-2.883,-2.882,-2.8794,-2.8785,-2.8778,-2.877,-2.8724,-2.8711,-2.8845,-2.8845,-2.8845,0,0,-2.9279,-2.9258,-2.9232,-2.918,-2.9157,-2.9112,-2.9147,-2.9098,-2.9064,-2.9079,-2.9014,-2.8995,-2.8957,-2.8882,-2.8848,-2.8864,-2.8731,-2.8771,-2.8766,-2.876,-2.8716,-2.8704,-2.8693,-2.8841,-2.8842,-2.8843,0,0,-2.9196,-2.9177,-2.9125,-2.9102,-2.9069,-2.906,-2.9047,-2.9015,-2.9005,-2.894,-2.895,-2.8908,-2.8829,-2.8801,-2.8776,-2.8684,-2.8691,-2.8669,-2.8623,-2.8579,-2.8568,-2.8559,-2.8523,-2.8511,-2.8661,-2.8661,-2.8661,0,-2.9158,-2.9095,-2.9096,-2.9047,-2.9022,-2.9037,-2.8982,-2.8959,-2.8911,-2.8893,-2.8912,-2.8814,-2.8789,-2.8707,-2.8685,-2.8665,-2.8648,-2.8673,-2.857,-2.8561,-2.8552,-2.8518,-2.8505,-2.8659,-2.8659,-2.8659,-2.866,0,-2.9049,-2.9005,-2.8966,-2.8923,-2.8894,-2.8842,-2.8833,-2.8803,-2.8805,-2.8793,-2.8725,-2.8696,-2.8647,-2.8627,-2.8628,-2.8545,-2.8556,-2.8573,-2.8606,-2.8537,-2.8505,-2.8492,-2.8655,-2.8656,-2.8657,-2.8657,0,0,-2.894,-2.8901,-2.8887,-2.8867,-2.8832,-2.8796,-2.8743,-2.8698,-2.8672,-2.8638,-2.8592,-2.8526,-2.8542,-2.8514,-2.8511,-2.8473,-2.8399,-2.8494,-2.8493,-2.8476,-2.8303,-2.8288,-2.8274,-2.8405,-2.8402,-2.84,-2.8305,0,-2.8853,-2.8765,-2.8765,-2.8682,-2.864,-2.8654,-2.8608,-2.8579,-2.8567,-2.8526,-2.8511,-2.8464,-2.849,-2.8472,-2.8435,-2.8416,-2.8363,-2.8423,-2.8358,-2.8356,-2.8365,-2.8257,-2.8242,-2.8154,-2.8293,-2.8291,-2.8289,0,-2.8739,-2.8706,-2.862,-2.8591,-2.8573,-2.8532,-2.849,-2.8453,-2.842,-2.8413,-2.8382,-2.8386,-2.8329,-2.8366,-2.8286,-2.8327,-2.83,-2.8287,-2.8283,-2.8275,-2.8317,-2.8244,-2.8126,-2.8112,-2.827,-2.8272,-2.8273,0,-2.8666,-2.86,-2.854,-2.8523,-2.8488,-2.8458,-2.8441,-2.8411,-2.8384,-2.8346,-2.8328,-2.8283,-2.8258,-2.8221,-2.8211,-2.824,-2.813,-2.8167,-2.812,-2.812,-2.8094,-2.8096,-2.7968,-2.8081,-2.8081,-2.8082,-2.8082,0,-2.8567,-2.8513,-2.8506,-2.8469,-2.8408,-2.8408,-2.8346,-2.8331,-2.8305,-2.8262,-2.8271,-2.823,-2.822,-2.8176,-2.8168,-2.8101,-2.809,-2.8081,-2.8078,-2.8079,-2.8079,-2.8059,-2.8064,-2.8078,-2.8079,-2.808,-2.808,0,-2.8474,-2.8468,-2.8403,-2.8377,-2.8368,-2.8325,-2.83,-2.8262,-2.8252,-2.8198,-2.8185,-2.8166,-2.8115,-2.8103,-2.8041,-2.8035,-2.7956,-2.7961,-2.7968,-2.7967,-2.792,-2.7924,-2.7773,-2.7752,-2.7881,-2.788,-2.7879,0,-2.8411,-2.837,-2.834,-2.8314,-2.8297,-2.8255,-2.8228,-2.8225,-2.8196,-2.8156,-2.8122,-2.8073,-2.8034,-2.7951,-2.793,-2.7882,-2.7884,-2.7835,-2.7876,-2.7878,-2.788,-2.7882,-2.7877,-2.7825,-2.7824,-2.7823,-2.7822,0,-2.8297,-2.8297,-2.826,-2.8221,-2.8189,-2.8158,-2.8128,-2.8105,-2.8097,-2.8063,-2.8014,-2.7983,-2.7922,-2.7871,-2.7824,-2.7803,-2.7809,-2.781,-2.7796,-2.7794,-2.7799,-2.7794,-2.7944,-2.7812,-2.7813,-2.7814,-2.7815,-2.7815,-2.8215,-2.818,-2.8154,-2.8111,-2.8089,-2.8061,-2.8024,-2.8011,-2.797,-2.7922,-2.7922,-2.7867,-2.7833,-2.777,-2.7747,-2.7701,-2.7716,-2.7696,-2.7691,-2.7685,-2.768,-2.7809,-2.7693,-2.7693,-2.7693,-2.7693,-2.7694,0,-2.8101,-2.8085,-2.8047,-2.8006,-2.7972,-2.7987,-2.7954,-2.7923,-2.7876,-2.7846,-2.7808,-2.7749,-2.7701,-2.7677,-2.7628,-2.7596,-2.7597,-2.7583,-2.7583,-2.7578,-2.7671,-2.7687,-2.7582,-2.7582,-2.7582,-2.7582,-2.7582,-2.7582,-2.8037,-2.7977,-2.7973,-2.7901,-2.7885,-2.7834,-2.7814,-2.7786,-2.7763,-2.7698,-2.766,-2.7646,-2.7617,-2.7566,-2.7522,-2.7516,-2.7496,-2.7479,-2.7474,-2.756,-2.7572,-2.7582,-2.7597,-2.7475,-2.7475,-2.7384,-2.7383,-2.7383]}]]